User: anonymous   Login
Location: Unspecified
(0.0000°N, 0.0000°E)
Time: 03:51:23
(UTC+01:00)
Language:

Cosmos 2237 Rocket - Orbit

View from above orbital plane
View from above orbital plane
View from above satellite
View from above satellite

Ground track
Ground track

The orbit data is extracted from the following two-line orbital elements,

1 22566U 93016B   14324.86218073  .00000001  00000-0  25204-4 0  2080
2 22566 071.0095 238.5050 0008158 129.1968 230.9880 14.14869483118408
Epoch (UTC): 20 November 2014 20:41:32
Eccentricity: 0.0008158
inclination: 71.0095°
perigee height: 837 km
apogee height: 848 km
right ascension of ascending node: 238.5050°
argument of perigee: 129.1968°
revolutions per day: 14.14869483
mean anomaly at epoch: 230.9880°
orbit number at epoch: 11840

The dashed part of the orbit path shows where the satellite is in the earth's shadow,  

DLR